Weather observations for the past three days for
Decorah
Imperial (Metric)
Date Time (cdt) Wind (mph) Vis. (mi.) Weather Sky Cond. Temperature (ºF) Relative Humidity Wind Chill (°F) Heat Index (°F) Pressure Precipitation (in)
Air Dwpt 6 hour altimeter (in) sea level (mb) 1 hr 3 hr 6 hr
Max. Min.
24 10:15 E 7 10.00 Mostly Cloudy FEW014 SCT023 BKN029 69.8 66.2 88% 30.15 0.0
24 09:55 E 7 10.00 Overcast FEW013 OVC027 69.8 66.2 88% 30.15 0.0
24 09:35 Calm 10.00 Overcast FEW012 BKN020 OVC026 68 66.2 94% 30.16 0.0
24 09:15 E 5 10.00 Overcast BKN016 OVC020 68 66.2 94% 30.16 0.0
24 08:55 E 5 10.00 Overcast FEW009 OVC014 66.2 66.2 100% 30.16 0.0
24 08:35 Calm 10.00 Overcast BKN007 OVC013 66.2 66.2 100% 30.15 0.0
24 08:15 Vrbl 5 10.00 Overcast OVC006 66.2 66.2 100% 30.15 0.0
24 07:55 NE 7 10.00 Overcast OVC004 66.2 66.2 100% 30.14 0.0
24 07:35 NE 5 7.00 Overcast OVC004 64.4 64.4 100% 30.13 0.0
24 07:15 Vrbl 3 7.00 Mostly Cloudy BKN004 64.4 64.4 100% 30.13 0.0
24 06:55 Calm 8.00 Mostly Cloudy BKN004 64.4 64.4 100% 30.13 0.0
24 06:35 Vrbl 5 6.00 Fog/Mist BKN004 64.4 64.4 100% 30.12 0.0
24 06:15 NE 5 7.00 Mostly Cloudy SCT005 BKN021 64.4 64.4 100% 30.12 0.0
24 05:55 NE 5 8.00 Overcast FEW005 OVC019 64.4 64.4 100% 30.12 0.0
24 05:35 NE 5 8.00 Overcast FEW004 OVC015 64.4 64.4 100% 30.12 0.0
24 05:15 NE 5 7.00 Overcast BKN004 OVC014 64.4 64.4 100% 30.11 0.0
24 04:55 NE 3 6.00 Fog/Mist BKN005 OVC012 64.4 64.4 100% 30.11 0.0
24 04:35 NE 3 3.00 Fog/Mist OVC003 64.4 64.4 100% 30.11 0.0
24 04:15 NE 3 6.00 Fog/Mist OVC003 64.4 64.4 100% 30.1 0.0
24 03:55 NE 6 5.00 Fog/Mist OVC003 64.4 64.4 100% 30.1 0.0
24 03:35 NE 5 6.00 Fog/Mist SCT003 OVC009 64.4 64.4 100% 30.09 0.0
24 03:15 NE 7 7.00 Overcast OVC010 64.4 64.4 100% 30.09 0.0
24 02:55 NE 6 7.00 Overcast BKN010 OVC070 64.4 64.4 100% 30.09 0.0
24 02:35 N 3 6.00 Fog/Mist OVC070 64.4 64.4 100% 30.09 0.0
24 02:15 Calm 5.00 Fog/Mist FEW028 OVC070 64.4 64.4 100% 30.09 0.0
24 01:55 Calm 4.00 Fog/Mist SCT028 OVC070 64.4 64.4 100% 30.09 0.0
24 01:35 Calm 5.00 Fog/Mist BKN028 OVC065 62.6 62.6 100% 30.09 0.0
24 01:15 Calm 10.00 Overcast OVC065 64.4 64.4 100% 30.08 0.0
24 00:55 Calm 10.00 Overcast SCT027 OVC065 64.4 64.4 100% 30.08 0.0
24 00:35 Calm 6.00 Fog/Mist BKN027 OVC065 64.4 64.4 100% 30.08 0.0
24 00:15 Calm 8.00 Overcast OVC065 66.2 66.2 100% 30.07 0.0
23 23:55 Calm 10.00 Overcast OVC065 66.2 66.2 100% 30.07 0.0
23 23:35 NE 5 10.00 Overcast OVC065 66.2 66.2 100% 30.07 0.0
23 23:15 E 3 10.00 Overcast SCT032 BKN065 OVC075 66.2 66.2 100% 30.07 0.0
23 22:55 E 3 10.00 Overcast SCT033 OVC075 66.2 66.2 100% 30.07 0.0
23 22:35 E 3 10.00 Overcast OVC080 68 68 100% 30.08 0.0
23 22:15 Calm 10.00 Overcast OVC080 68 68 100% 30.08 0.0
23 21:55 N 6 10.00 Overcast OVC080 69.8 69.8 100% 30.07 0.0
23 21:35 Calm 10.00 Overcast FEW050 OVC080 69.8 68 94% 30.07 0.0
23 21:15 Calm 10.00 Mostly Cloudy FEW039 FEW045 BKN080 69.8 69.8 100% 30.06 0.0
23 20:55 Calm 10.00 Fair CLR 68 68 100% 30.05 0.0
23 20:35 Calm 10.00 Fair CLR 69.8 69.8 100% 30.04 0.0
23 20:15 Calm 10.00 Fair CLR 69.8 69.8 100% 30.04 0.0
23 19:55 Calm 10.00 Fair CLR 71.6 69.8 94% 30.04 0.0
23 19:35 NE 3 10.00 Fair CLR 71.6 69.8 94% 30.03 0.0
23 19:15 NE 6 10.00 Fair CLR 73.4 69.8 89% 30.03 0.0
23 18:55 NE 6 10.00 A Few Clouds FEW060 FEW070 73.4 69.8 89% 30.03 0.0
23 18:35 N 5 10.00 Mostly Cloudy FEW060 SCT070 BKN085 75.2 68 78% 76 30.03 0.0
23 18:15 N 6 10.00 Mostly Cloudy SCT070 BKN085 BKN110 75.2 68 78% 76 30.02 0.0
23 17:55 N 5 10.00 Mostly Cloudy FEW033 FEW044 BKN070 75.2 68 78% 76 30.01 0.0
23 17:35 N 5 10.00 Mostly Cloudy FEW030 SCT035 BKN044 75.2 68 78% 76 30.01 0.0
23 17:15 Calm 10.00 Mostly Cloudy FEW029 SCT036 BKN110 75.2 66.2 74% 77 30.01 0.0
23 16:55 Calm 10.00 Mostly Cloudy FEW029 SCT036 BKN110 75.2 66.2 74% 77 30.01 0.0
23 16:35 Vrbl 3 10.00 Partly Cloudy FEW028 SCT110 77 68 74% 79 30.01 0.0
23 16:15 Calm 10.00 A Few Clouds FEW110 75.2 66.2 74% 77 30 0.0
23 15:55 Calm 10.00 A Few Clouds FEW120 75.2 68 78% 76 30 0.0
23 15:35 Calm 10.00 Partly Cloudy SCT110 73.4 66.2 78% 30 0.0
23 15:15 Calm 10.00 Mostly Cloudy BKN110 73.4 66.2 78% 29.99 0.0
23 14:55 Calm 10.00 Partly Cloudy SCT110 73.4 66.2 78% 29.98 0.0
23 14:35 Calm 10.00 Fair CLR 73.4 66.2 78% 29.98 0.0
23 14:15 NE 5 10.00 A Few Clouds FEW035 FEW045 73.4 66.2 78% 29.99 0.0
23 13:55 N 6 G 14 10.00 Mostly Cloudy SCT024 SCT029 BKN035 73.4 68 83% 30.02 0.0
23 13:35 Vrbl 6 10.00 Mostly Cloudy SCT024 BKN029 75.2 68 78% 76 30.03 0.0
23 13:15 N 8 10.00 Partly Cloudy SCT022 SCT028 75.2 68 78% 76 30.04 0.0
23 12:55 NW 9 10.00 Mostly Cloudy BKN022 BKN028 73.4 68 83% 30.04 0.0
23 12:35 Vrbl 5 10.00 A Few Clouds FEW021 73.4 68 83% 30.04 0.0
23 12:15 NW 6 10.00 A Few Clouds FEW017 71.6 66.2 83% 30.03 0.0
23 11:35 Calm 10.00 Partly Cloudy SCT014 SCT019 71.6 68 88% 30.02 0.0
23 11:15 NE 3 10.00 Mostly Cloudy BKN012 69.8 66.2 88% 30.02 0.0
23 10:55 N 7 9.00 Mostly Cloudy BKN012 69.8 68 94% 30.02 0.0
23 10:35 N 5 9.00 Overcast BKN009 OVC013 68 66.2 94% 30.02 0.0
23 10:15 Vrbl 6 7.00 Overcast OVC006 66.2 66.2 100% 30.02 0.0
23 09:55 N 9 5.00 Fog/Mist OVC007 66.2 66.2 100% 30.02 0.0
23 09:35 N 7 7.00 Overcast BKN009 OVC013 68 68 100% 30.01 0.0
23 09:15 N 7 7.00 Overcast BKN008 OVC013 68 68 100% 30.01 0.0
23 08:55 NW 6 7.00 Mostly Cloudy BKN007 68 68 100% 30.01 0.0
23 08:35 NW 5 8.00 Partly Cloudy SCT006 68 68 100% 30 0.0
23 08:15 W 3 8.00 Partly Cloudy FEW005 SCT036 SCT042 66.2 66.2 100% 30 0.0
23 07:55 Calm 8.00 Partly Cloudy SCT035 SCT042 66.2 66.2 100% 30 0.0
23 07:35 Calm 0.00 NULL NULL 66.2 66.2 100% 29.99 0.0
23 07:15 Calm 8.00 A Few Clouds FEW036 64.4 64.4 100% 29.98 0.0
23 06:55 Calm 8.00 Fair CLR 64.4 64.4 100% 29.98 0.0
23 06:35 Calm 9.00 Fair CLR 64.4 64.4 100% 29.98 0.0
23 06:15 W 3 10.00 Fair CLR 64.4 64.4 100% 29.98 0.0
23 05:55 W 3 10.00 Fair CLR 64.4 64.4 100% 29.97 0.0
23 05:35 Calm 10.00 Mostly Cloudy FEW042 BKN070 64.4 64.4 100% 29.97 0.0
23 05:15 Calm 9.00 Overcast OVC070 64.4 64.4 100% 29.96 0.0
23 04:55 Calm 10.00 Overcast OVC070 66.2 66.2 100% 29.96 0.0
23 04:35 Calm 10.00 Overcast FEW039 FEW046 OVC070 66.2 66.2 100% 29.96 0.0
23 04:15 Calm 8.00 Overcast FEW040 SCT047 OVC070 66.2 66.2 100% 29.96 0.0
23 03:55 Calm 9.00 Mostly Cloudy FEW033 SCT045 BKN065 66.2 66.2 100% 29.96 0.0
23 03:35 Calm 10.00 Overcast FEW040 BKN046 OVC070 66.2 66.2 100% 29.96 0.0
23 03:15 Calm 10.00 Overcast BKN044 OVC065 68 68 100% 29.96 0.0
23 02:55 Calm 10.00 Overcast BKN044 OVC055 68 68 100% 29.96 0.0
23 02:35 Calm 10.00 Overcast BKN046 BKN055 OVC065 68 68 100% 29.96 0.0
23 02:15 Vrbl 3 10.00 Overcast FEW040 BKN046 OVC055 69.8 68 94% 29.97 0.0
23 01:55 Vrbl 6 10.00 Overcast BKN045 OVC050 69.8 68 94% 29.97 0.0
23 01:35 SW 6 10.00 Overcast BKN043 BKN049 OVC120 69.8 68 94% 29.97 0.0
23 01:15 SW 5 10.00 Overcast BKN041 OVC049 68 68 100% 29.97 0.0
23 00:55 S 5 10.00 Overcast FEW037 BKN044 OVC050 68 68 100% 29.97 0.0
23 00:35 SW 3 10.00 Overcast FEW038 OVC045 69.8 68 94% 29.98 0.0
23 00:15 Vrbl 3 10.00 Overcast SCT036 BKN045 OVC075 69.8 68 94% 29.98 0.0
22 23:55 Calm 10.00 Mostly Cloudy SCT037 BKN043 BKN049 69.8 68 94% 29.98 0.0
22 23:35 Vrbl 5 10.00 Mostly Cloudy BKN038 BKN043 BKN050 69.8 68 94% 29.97 0.0
22 23:15 Vrbl 5 10.00 Mostly Cloudy SCT036 BKN042 BKN049 69.8 69.8 100% 29.97 0.0
22 22:55 SW 5 10.00 Overcast FEW034 BKN040 OVC060 69.8 69.8 100% 29.97 0.0
22 22:35 Calm 10.00 Mostly Cloudy FEW034 SCT043 BKN050 69.8 68 94% 29.97 0.0
22 22:15 S 5 10.00 Mostly Cloudy FEW037 SCT045 BKN055 69.8 68 94% 29.97 0.0
22 21:55 Calm 10.00 Overcast FEW034 BKN044 OVC050 71.6 68 88% 29.97 0.0
22 21:35 Calm 10.00 Mostly Cloudy SCT034 SCT045 BKN055 71.6 68 88% 29.98 0.0
22 21:15 Calm 10.00 A Few Clouds FEW045 FEW060 73.4 68 83% 29.97 0.0
22 20:55 Calm 10.00 Fair CLR 73.4 68 83% 29.97 0.0
22 20:35 Calm 10.00 Fair CLR 75.2 68 78% 76 29.97 0.0
22 20:15 Calm 10.00 Fair CLR 75.2 68 78% 76 29.98 0.0
22 19:55 Calm 10.00 Fair CLR 77 68 74% 79 29.98 0.0
22 19:35 Calm 10.00 Fair CLR 77 69.8 79% 79 29.97 0.0
22 19:15 Calm 10.00 Fair CLR 77 68 74% 79 29.97 0.0
22 18:55 Calm 10.00 A Few Clouds FEW042 78.8 68 70% 81 29.97 0.0
22 18:35 Calm 10.00 A Few Clouds FEW045 78.8 68 70% 81 29.97 0.0
22 18:15 Calm 10.00 Partly Cloudy SCT042 78.8 66.2 65% 81 29.97 0.0
22 17:55 SW 3 10.00 A Few Clouds FEW041 78.8 66.2 65% 81 29.97 0.0
22 17:35 SW 3 10.00 Fair CLR 78.8 66.2 65% 81 29.97 0.0
22 17:15 SW 6 10.00 A Few Clouds FEW046 78.8 66.2 65% 81 29.97 0.0
22 16:55 Vrbl 3 10.00 A Few Clouds FEW041 78.8 66.2 65% 81 29.98 0.0
22 16:35 W 3 10.00 A Few Clouds FEW040 78.8 64.4 61% 81 29.98 0.0
22 16:15 Calm 10.00 A Few Clouds FEW040 78.8 66.2 65% 81 29.98 0.0
22 15:55 SW 6 10.00 Mostly Cloudy BKN040 BKN046 78.8 66.2 65% 81 29.99 0.0
22 15:35 Calm 10.00 Mostly Cloudy SCT041 BKN047 78.8 66.2 65% 81 29.99 0.0
22 15:15 Vrbl 5 10.00 A Few Clouds FEW040 78.8 64.4 61% 81 30.01 0.0
22 14:55 Calm 10.00 Partly Cloudy SCT040 78.8 64.4 61% 81 30.02 0.0
22 14:35 W 6 10.00 Partly Cloudy SCT040 78.8 64.4 61% 81 30.03 0.0
22 14:15 Calm 10.00 Mostly Cloudy BKN037 78.8 64.4 61% 81 30.03 0.0
22 13:55 Vrbl 5 10.00 Overcast OVC035 78.8 66.2 65% 81 30.04 0.0
22 13:35 Calm 10.00 Mostly Cloudy SCT033 BKN042 77 66.2 69% 79 30.04 0.0
22 13:15 Calm 10.00 Partly Cloudy SCT035 78.8 66.2 65% 81 30.05 0.0
22 12:55 NW 6 10.00 Mostly Cloudy SCT031 BKN037 77 66.2 69% 79 30.05 0.0
22 12:35 Calm 10.00 Partly Cloudy FEW030 SCT040 77 66.2 69% 79 30.05 0.0
22 12:15 Calm 10.00 Fair CLR 75.2 66.2 74% 77 30.06 0.0
22 11:55 Calm 10.00 A Few Clouds FEW027 75.2 66.2 74% 77 30.06 0.0
22 11:35 Calm 10.00 Partly Cloudy SCT024 SCT029 75.2 64.4 69% 77 30.07 0.0
22 11:15 Calm 10.00 Fair CLR 75.2 68 78% 76 30.07 0.0
22 10:55 Calm 10.00 A Few Clouds FEW018 73.4 66.2 78% 30.07 0.0
22 10:35 Vrbl 3 10.00 A Few Clouds FEW018 73.4 68 83% 30.07 0.0
22 10:15 Calm 10.00 Fair CLR 71.6 68 88% 30.07 0.0
22 09:55 Calm 10.00 Fair CLR 71.6 68 88% 30.07 0.0
22 09:35 Vrbl 3 10.00 Fair CLR 69.8 68 94% 30.07 0.0
22 09:15 Calm 10.00 Fair CLR 68 66.2 94% 30.07 0.0
22 08:55 NW 3 10.00 Fair CLR 68 66.2 94% 30.07 0.0
22 08:35 NW 3 10.00 Fair CLR 66.2 66.2 100% 30.07 0.0
22 08:15 Calm 10.00 Fair CLR 66.2 66.2 100% 30.07 0.0
22 07:55 Calm 10.00 A Few Clouds FEW120 64.4 64.4 100% 30.07 0.0
22 07:35 Calm 9.00 Partly Cloudy SCT120 62.6 62.6 100% 30.07 0.0
22 07:15 Calm 7.00 Partly Cloudy SCT120 62.6 62.6 100% 30.07 0.0
22 06:55 Calm 4.00 Fog/Mist CLR 60.8 60.8 100% 30.07 0.0
22 06:35 Calm 4.00 Fog/Mist CLR 60.8 60.8 100% 30.08 0.0
22 06:15 Calm 5.00 Fog/Mist CLR 60.8 60.8 100% 30.08 0.0
22 05:55 Calm 7.00 Fair CLR 62.6 62.6 100% 30.07 0.0
22 05:35 Calm 6.00 Fog/Mist FEW032 FEW039 SCT110 60.8 60.8 100% 30.07 0.0
22 05:15 Calm 5.00 Fog/Mist FEW030 BKN036 BKN041 60.8 60.8 100% 30.07 0.0
22 04:55 NW 5 8.00 Mostly Cloudy FEW028 BKN033 BKN040 62.6 62.6 100% 30.07 0.0
22 04:35 Calm 9.00 Mostly Cloudy FEW024 SCT029 BKN037 62.6 62.6 100% 30.07 0.0
22 04:15 Calm 10.00 Partly Cloudy FEW030 SCT035 SCT041 62.6 62.6 100% 30.07 0.0
22 03:55 Calm 6.00 Fog/Mist FEW030 SCT034 BKN040 62.6 62.6 100% 30.07 0.0
22 03:35 Calm 9.00 Mostly Cloudy FEW029 SCT037 BKN120 62.6 62.6 100% 30.08 0.0
22 03:15 NW 3 10.00 Mostly Cloudy FEW032 SCT040 BKN120 62.6 62.6 100% 30.08 0.0
22 02:55 Calm 10.00 Overcast SCT021 SCT028 OVC120 62.6 62.6 100% 30.08 0.0
22 02:35 Calm 10.00 Overcast BKN020 OVC028 62.6 62.6 100% 30.08 0.0
22 02:15 Calm 10.00 Overcast BKN020 BKN025 OVC036 62.6 62.6 100% 30.09 0.0
22 01:55 Calm 10.00 Mostly Cloudy FEW025 SCT031 BKN036 62.6 62.6 100% 30.09 0.0
22 01:35 Calm 10.00 Overcast BKN032 BKN037 OVC043 64.4 64.4 100% 30.09 0.0
22 01:15 SE 5 10.00 Overcast SCT026 OVC032 64.4 64.4 100% 30.09 0.0
22 00:55 SE 3 10.00 Overcast SCT026 BKN032 OVC040 64.4 64.4 100% 30.1 0.0
22 00:35 SE 3 10.00 Mostly Cloudy FEW028 SCT036 BKN043 64.4 64.4 100% 30.09 0.0
22 00:15 Calm 10.00 Mostly Cloudy SCT036 BKN043 BKN048 64.4 64.4 100% 30.1 0.0
21 23:55 Calm 10.00 Overcast SCT034 BKN041 OVC110 64.4 64.4 100% 30.1 0.0
21 23:35 E 5 10.00 Mostly Cloudy SCT033 SCT044 BKN070 66.2 66.2 100% 30.1 0.0
21 23:15 W 5 10.00 Mostly Cloudy FEW037 BKN100 BKN120 66.2 66.2 100% 30.09 0.0
21 22:55 W 3 10.00 Mostly Cloudy SCT037 SCT046 BKN110 66.2 64.4 94% 30.09 0.0
21 22:35 Calm 10.00 Mostly Cloudy BKN037 BKN045 BKN120 66.2 64.4 94% 30.1 0.0
21 22:15 E 7 10.00 Mostly Cloudy BKN037 BKN043 66.2 66.2 100% 30.12 0.0
21 22:00 Calm 10.00 Mostly Cloudy FEW030 BKN038 BKN048 66.2 66.2 100% 30.12 0.0
21 21:35 Calm 10.00 Partly Cloudy FEW028 SCT038 SCT047 68 66.2 94% 30.12 0.0
21 21:15 Calm 10.00 A Few Clouds FEW041 68 66.2 94% 30.11 0.0
21 20:55 SE 5 10.00 Mostly Cloudy SCT037 SCT044 BKN085 69.8 66.2 88% 30.11 0.0
21 20:35 Vrbl 7 10.00 Partly Cloudy FEW035 FEW050 SCT085 71.6 64.4 78% 30.11 0.0
21 20:15 NE 3 10.00 Fair CLR 73.4 62.6 69% 30.1 0.0
21 19:55 Calm 0.00 Fair CLR 73.4 64.4 74% 30.1 0.0
21 19:35 Vrbl 3 10.00 Fair CLR 75.2 64.4 69% 77 30.09 0.0
21 19:15 N 6 10.00 Fair CLR 75.2 62.6 65% 77 30.09 0.0
21 18:55 NE 5 G 12 10.00 A Few Clouds FEW035 75.2 64.4 69% 77 30.09 0.0
21 18:35 N 5 10.00 A Few Clouds FEW036 77 66.2 69% 79 30.09 0.0
21 18:15 N 5 10.00 Fair CLR 75.2 66.2 74% 77 30.08 0.0
21 17:55 N 6 10.00 Fair CLR 77 64.4 65% 79 30.08 0.0
21 17:35 Vrbl 8 10.00 Fair CLR 77 62.6 61% 79 30.08 0.0
21 17:15 N 8 10.00 Fair CLR 77 62.6 61% 79 30.09 0.0
21 16:55 N 13 10.00 A Few Clouds FEW085 77 62.6 61% 79 30.09 0.0
21 16:35 N 10 10.00 A Few Clouds FEW085 77 64.4 65% 79 30.09 0.0
21 16:15 N 12 10.00 Fair CLR 78.8 66.2 65% 81 30.1 0.0
21 15:55 NW 10 10.00 Fair CLR 77 64.4 65% 79 30.1 0.0
21 15:35 N 12 10.00 Fair CLR 78.8 68 70% 81 30.11 0.0
21 15:15 N 8 G 14 10.00 A Few Clouds FEW034 78.8 66.2 65% 81 30.12 0.0
21 14:55 N 10 10.00 A Few Clouds FEW033 78.8 66.2 65% 81 30.12 0.0
21 14:35 N 9 10.00 Partly Cloudy FEW028 SCT032 SCT065 77 66.2 69% 79 30.12 0.0
21 14:15 N 9 10.00 Mostly Cloudy SCT026 BKN065 77 68 74% 79 30.12 0.0
21 13:55 Vrbl 5 10.00 Partly Cloudy SCT026 77 69.8 79% 79 30.13 0.0
21 13:35 N 7 10.00 Partly Cloudy FEW024 SCT029 77 68 74% 79 30.14 0.0
21 13:15 Vrbl 5 10.00 Partly Cloudy SCT021 SCT025 75.2 68 78% 76 30.15 0.0
21 12:55 N 9 10.00 Partly Cloudy FEW019 SCT025 75.2 69.8 83% 75 30.15 0.0
21 12:35 N 7 10.00 A Few Clouds FEW017 73.4 69.8 89% 30.15 0.0
21 12:15 N 6 10.00 Mostly Cloudy BKN014 73.4 69.8 89% 30.15 0.0
21 11:55 N 6 10.00 Mostly Cloudy BKN015 BKN055 73.4 69.8 89% 30.15 0.0
21 11:35 Vrbl 6 10.00 Mostly Cloudy FEW015 BKN055 BKN070 73.4 69.8 89% 30.15 0.0
21 11:15 Vrbl 6 10.00 Mostly Cloudy FEW015 BKN055 BKN065 73.4 69.8 89% 30.15 0.0
21 10:55 N 6 10.00 Overcast OVC075 73.4 69.8 89% 30.15 0.0
21 10:35 N 7 10.00 Overcast FEW015 FEW060 OVC075 71.6 69.8 94% 30.16 0.0
Date Time (cdt) Wind (mph) Vis. (mi.) Weather Sky Cond. Air Dwpt Max. Min. Relative Humidity Wind Chill (°F) Heat Index (°F) altimeter (in) sea level (mb) 1 hr 3 hr 6 hr
6 hour
Temperature (ºF) Pressure Precipitation (in)